SBI5301 UNNT-UOOO

Flight info

Callsign SBI5301
Flight time 2h 14m
Altitude 33000
Route DIMID1K DIMID R27 CE G489 BATRA/K0861F340 G489 THN G490 OLURI OLURI1F
Aircraft B738/M-SDE2E3FGHIRWXY/LB1

Departure

Time 2026-04-30 19:09
Airport Novosibirsk Tolmachevo Airport (UNNT)

Arrival

Time 2026-04-30 21:24
Airport Alykel International Airport (UOOO)
Time Latitude Longitude Altitude Speed Heading
2026-04-30 19:09 55.13679 82.30738 5971 ft 274 kts 316°
2026-04-30 19:09 55.15072 82.28454 5965 ft 275 kts 315°
2026-04-30 19:10 55.17845 82.23896 5964 ft 271 kts 315°
2026-04-30 19:10 55.20587 82.19376 5959 ft 270 kts 316°
2026-04-30 19:11 55.22198 82.17704 5981 ft 273 kts 342°
2026-04-30 19:11 55.26008 82.16905 7148 ft 281 kts 353°
2026-04-30 19:11 55.27955 82.16618 7966 ft 281 kts 353°
2026-04-30 19:12 55.29913 82.16318 8747 ft 284 kts 352°
2026-04-30 19:12 55.31896 82.16003 9495 ft 287 kts 352°
2026-04-30 19:12 55.33893 82.15677 10243 ft 290 kts 351°
2026-04-30 19:13 55.38163 82.15329 10778 ft 334 kts
2026-04-30 19:13 55.42035 82.20460 11183 ft 383 kts 63°
2026-04-30 19:13 55.42796 82.25006 11706 ft 390 kts 80°
2026-04-30 19:14 55.43205 82.29752 12357 ft 394 kts 81°
2026-04-30 19:14 55.43671 82.34526 12988 ft 398 kts 79°
2026-04-30 19:14 55.44226 82.39332 13594 ft 403 kts 77°
2026-04-30 19:14 55.44847 82.44162 14174 ft 407 kts 76°
2026-04-30 19:15 55.45491 82.49052 14722 ft 411 kts 76°
2026-04-30 19:15 55.46876 82.58905 15802 ft 418 kts 66°
2026-04-30 19:15 55.48391 82.63258 16320 ft 417 kts 45°
2026-04-30 19:16 55.50577 82.66433 16885 ft 412 kts 26°
2026-04-30 19:16 55.53197 82.68387 17435 ft 408 kts 10°
2026-04-30 19:16 55.58822 82.69060 18488 ft 407 kts 356°
2026-04-30 19:17 55.61672 82.69078 18944 ft 411 kts 356°
2026-04-30 19:17 55.67415 82.69128 19911 ft 415 kts 356°
2026-04-30 19:17 55.70309 82.69187 20376 ft 418 kts 356°
2026-04-30 19:18 55.75208 82.69321 21144 ft 422 kts 356°
2026-04-30 19:18 55.79105 82.69443 21726 ft 425 kts 356°
2026-04-30 19:18 55.82071 82.69537 22170 ft 427 kts 356°
2026-04-30 19:19 55.85054 82.69633 22580 ft 430 kts 356°
2026-04-30 19:19 55.88059 82.69728 22992 ft 433 kts 356°
2026-04-30 19:19 55.94107 82.69920 23771 ft 437 kts 356°
2026-04-30 19:20 55.97162 82.70017 24108 ft 439 kts 356°
2026-04-30 19:20 56.00221 82.70115 24473 ft 440 kts 356°
2026-04-30 19:20 56.06343 82.71391 25103 ft 457 kts 17°
2026-04-30 19:21 56.09155 82.74171 25454 ft 469 kts 34°
2026-04-30 19:21 56.13821 82.82497 26114 ft 477 kts 43°
2026-04-30 19:22 56.18359 82.91157 26642 ft 481 kts 42°
2026-04-30 19:22 56.25336 83.04220 27528 ft 485 kts 41°
2026-04-30 19:23 56.32404 83.17395 28348 ft 489 kts 41°
2026-04-30 19:24 56.37102 83.26205 29226 ft 484 kts 41°
2026-04-30 19:24 56.39432 83.30586 29645 ft 482 kts 41°
2026-04-30 19:24 56.44070 83.39321 30344 ft 481 kts 40°
2026-04-30 19:25 56.50964 83.52365 31506 ft 471 kts 40°
2026-04-30 19:26 56.55329 83.60697 32989 ft 444 kts 39°
2026-04-30 19:26 56.59550 83.68741 33154 ft 444 kts 39°
2026-04-30 19:27 56.66051 83.81147 33166 ft 459 kts 39°
2026-04-30 19:28 56.72683 83.93919 33165 ft 471 kts 40°
2026-04-30 19:29 56.81715 84.11450 33149 ft 475 kts 40°
2026-04-30 19:30 56.90742 84.29093 33145 ft 474 kts 40°
2026-04-30 19:31 56.99695 84.46722 33149 ft 471 kts 40°
2026-04-30 19:31 57.06369 84.59948 33148 ft 469 kts 40°
2026-04-30 19:32 57.10770 84.68707 33148 ft 468 kts 40°
2026-04-30 19:32 57.15488 84.76740 33149 ft 454 kts 27°
2026-04-30 19:33 57.20702 84.83250 33150 ft 452 kts 26°
2026-04-30 19:33 57.25934 84.89705 33156 ft 452 kts 26°
2026-04-30 19:34 57.31156 84.96254 33151 ft 454 kts 26°
2026-04-30 19:35 57.38970 85.06193 33145 ft 455 kts 26°
2026-04-30 19:35 57.44179 85.12861 33154 ft 456 kts 26°
2026-04-30 19:36 57.49402 85.19567 33150 ft 456 kts 26°
2026-04-30 19:36 57.57243 85.29679 33150 ft 457 kts 26°
2026-04-30 19:37 57.62439 85.36410 33146 ft 458 kts 26°
2026-04-30 19:37 57.67666 85.43203 33151 ft 458 kts 26°
2026-04-30 19:38 57.72892 85.50021 33145 ft 458 kts 26°
2026-04-30 19:38 57.78110 85.56853 33144 ft 458 kts 26°
2026-04-30 19:39 57.83319 85.63696 33141 ft 457 kts 26°
2026-04-30 19:39 57.88527 85.70565 33144 ft 457 kts 26°
2026-04-30 19:40 57.93730 85.77450 33147 ft 457 kts 26°
2026-04-30 19:40 57.98920 85.84342 33145 ft 457 kts 26°
2026-04-30 19:41 58.04109 85.91259 33147 ft 456 kts 26°
2026-04-30 19:41 58.09296 85.98198 33139 ft 456 kts 26°
2026-04-30 19:42 58.14473 86.05149 33134 ft 456 kts 26°
2026-04-30 19:42 58.19649 86.12123 33135 ft 456 kts 26°
2026-04-30 19:43 58.24783 86.19068 33142 ft 457 kts 26°
2026-04-30 19:44 58.32539 86.29605 33137 ft 457 kts 26°
2026-04-30 19:44 58.37699 86.36649 33135 ft 457 kts 26°
2026-04-30 19:45 58.42869 86.43732 33130 ft 457 kts 26°
2026-04-30 19:45 58.48034 86.50835 33124 ft 457 kts 26°
2026-04-30 19:46 58.53200 86.57965 33124 ft 458 kts 26°
2026-04-30 19:46 58.58359 86.65111 33127 ft 458 kts 26°
2026-04-30 19:47 58.63683 86.71464 33129 ft 440 kts 13°
2026-04-30 19:47 58.69407 86.74546 33127 ft 419 kts 358°
2026-04-30 19:48 58.75184 86.75914 33126 ft 418 kts 357°
2026-04-30 19:48 58.80971 86.77271 33123 ft 419 kts 358°
2026-04-30 19:49 58.86765 86.78696 33119 ft 420 kts 358°
2026-04-30 19:49 58.95475 86.80892 33117 ft 421 kts 358°
2026-04-30 19:50 59.01291 86.82367 33121 ft 422 kts 358°
2026-04-30 19:50 59.07084 86.83841 33124 ft 422 kts 358°
2026-04-30 19:51 59.12908 86.85327 33126 ft 423 kts 357°
2026-04-30 19:51 59.18742 86.86821 33125 ft 423 kts 357°
2026-04-30 19:52 59.24584 86.88322 33126 ft 423 kts 357°
2026-04-30 19:52 59.30428 86.89805 33124 ft 423 kts 357°
2026-04-30 19:53 59.35316 86.91034 33125 ft 423 kts 357°
2026-04-30 19:53 59.41153 86.92506 33127 ft 423 kts 357°
2026-04-30 19:54 59.46995 86.93988 33124 ft 423 kts 357°
2026-04-30 19:54 59.52788 86.95464 33129 ft 422 kts 357°
2026-04-30 19:55 59.58620 86.96956 33132 ft 422 kts 357°
2026-04-30 19:55 59.64443 86.98450 33129 ft 422 kts 356°
2026-04-30 19:56 59.70268 86.99950 33131 ft 422 kts 356°
2026-04-30 19:56 59.76095 87.01455 33139 ft 422 kts 356°
2026-04-30 19:57 59.81927 87.02967 33138 ft 422 kts 356°
2026-04-30 19:57 59.87746 87.04481 33133 ft 423 kts 356°
2026-04-30 19:58 59.93593 87.06008 33147 ft 423 kts 356°
2026-04-30 19:58 59.99430 87.07538 33140 ft 423 kts 356°
2026-04-30 19:59 60.05280 87.09076 33146 ft 424 kts 356°
2026-04-30 20:00 60.14067 87.11397 33154 ft 425 kts 356°
2026-04-30 20:00 60.19897 87.12944 33159 ft 426 kts 356°
2026-04-30 20:01 60.28734 87.15300 33151 ft 427 kts 356°
2026-04-30 20:01 60.34635 87.16881 33157 ft 428 kts 356°
2026-04-30 20:02 60.43498 87.19266 33158 ft 429 kts 356°
2026-04-30 20:03 60.52379 87.21669 33157 ft 429 kts 356°
2026-04-30 20:03 60.58293 87.23278 33160 ft 429 kts 356°
2026-04-30 20:04 60.64215 87.24893 33161 ft 429 kts 356°
2026-04-30 20:05 60.73078 87.27323 33159 ft 428 kts 356°
2026-04-30 20:05 60.81939 87.29765 33165 ft 428 kts 356°
2026-04-30 20:06 60.87810 87.31390 33151 ft 428 kts 356°
2026-04-30 20:06 60.93715 87.33031 33155 ft 428 kts 356°
2026-04-30 20:07 60.99611 87.34675 33157 ft 428 kts 356°
2026-04-30 20:08 61.08462 87.37155 33156 ft 428 kts 356°
2026-04-30 20:08 61.14370 87.38819 33153 ft 428 kts 356°
2026-04-30 20:09 61.20284 87.40489 33161 ft 429 kts 355°
2026-04-30 20:09 61.29167 87.43012 33153 ft 430 kts 355°
2026-04-30 20:10 61.38070 87.45555 33155 ft 431 kts 355°
2026-04-30 20:11 61.46989 87.48117 33155 ft 432 kts 355°
2026-04-30 20:11 61.52945 87.49837 33155 ft 432 kts 355°
2026-04-30 20:12 61.61894 87.52433 33156 ft 433 kts 355°
2026-04-30 20:13 61.67828 87.54162 33154 ft 434 kts 355°
2026-04-30 20:13 61.73809 87.55912 33151 ft 434 kts 355°
2026-04-30 20:14 61.79800 87.57674 33149 ft 435 kts 356°
2026-04-30 20:14 61.85800 87.59446 33154 ft 435 kts 356°
2026-04-30 20:15 61.91800 87.61223 33149 ft 436 kts 356°
2026-04-30 20:15 61.97818 87.63010 33153 ft 437 kts 356°
2026-04-30 20:16 62.03834 87.64802 33152 ft 437 kts 356°
2026-04-30 20:16 62.09870 87.66608 33150 ft 438 kts 356°
2026-04-30 20:17 62.15916 87.68424 33154 ft 439 kts 356°
2026-04-30 20:17 62.21976 87.70252 33146 ft 440 kts 356°
2026-04-30 20:18 62.28049 87.72091 33145 ft 441 kts 357°
2026-04-30 20:18 62.34137 87.73944 33146 ft 442 kts 357°
2026-04-30 20:19 62.40202 87.75797 33141 ft 444 kts 357°
2026-04-30 20:19 62.46321 87.77675 33144 ft 445 kts 358°
2026-04-30 20:20 62.52465 87.79568 33141 ft 446 kts 358°
2026-04-30 20:20 62.58627 87.81475 33143 ft 448 kts 358°
2026-04-30 20:21 62.64799 87.83393 33132 ft 449 kts 358°
2026-04-30 20:21 62.70989 87.85333 33124 ft 451 kts 359°
2026-04-30 20:22 62.77201 87.87667 33122 ft 454 kts
2026-04-30 20:22 62.83431 87.89908 33120 ft 453 kts 359°
2026-04-30 20:23 62.89676 87.91908 33121 ft 453 kts 359°
2026-04-30 20:23 62.95936 87.93865 33116 ft 454 kts 359°
2026-04-30 20:24 63.02163 87.95845 33113 ft 455 kts 360°
2026-04-30 20:24 63.08442 87.97863 33113 ft 456 kts
2026-04-30 20:25 63.17873 88.00675 33099 ft 451 kts 354°
2026-04-30 20:26 63.27223 88.00492 33111 ft 447 kts 351°
2026-04-30 20:26 63.36584 88.00054 33100 ft 449 kts 352°
2026-04-30 20:27 63.49108 87.99716 33101 ft 451 kts 352°
2026-04-30 20:28 63.61666 87.99068 33103 ft 451 kts 351°
2026-04-30 20:30 63.77384 87.98421 33091 ft 454 kts 353°
2026-04-30 20:31 63.96396 87.97953 33088 ft 456 kts 353°
2026-04-30 20:32 64.12303 87.97542 33086 ft 458 kts 353°
2026-04-30 20:33 64.21874 87.97293 33083 ft 459 kts 353°
2026-04-30 20:34 64.31464 87.97042 33082 ft 460 kts 354°
2026-04-30 20:35 64.41063 87.96788 33076 ft 460 kts 354°
2026-04-30 20:35 64.50642 87.96533 33073 ft 461 kts 354°
2026-04-30 20:36 64.57056 87.96362 33075 ft 461 kts 354°
2026-04-30 20:37 64.66689 87.96102 33067 ft 462 kts 354°
2026-04-30 20:37 64.73134 87.95928 33068 ft 463 kts 354°
2026-04-30 20:38 64.79576 87.95752 33064 ft 463 kts 354°
2026-04-30 20:38 64.86013 87.95577 33059 ft 464 kts 354°
2026-04-30 20:39 64.95716 87.95310 33057 ft 465 kts 355°
2026-04-30 20:40 65.05414 87.95045 33050 ft 465 kts 355°
2026-04-30 20:40 65.11890 87.94911 33046 ft 466 kts 355°
2026-04-30 20:41 65.20522 87.94745 33043 ft 466 kts 355°
2026-04-30 20:41 65.27018 87.94612 33046 ft 466 kts 355°
2026-04-30 20:42 65.33505 87.94479 33041 ft 467 kts 355°
2026-04-30 20:43 65.43253 87.94281 33035 ft 467 kts 355°
2026-04-30 20:43 65.49749 87.94150 33033 ft 467 kts 355°
2026-04-30 20:44 65.59504 87.93952 33026 ft 468 kts 355°
2026-04-30 20:45 65.72528 87.93685 33023 ft 468 kts 355°
2026-04-30 20:45 65.79043 87.93551 33016 ft 468 kts 356°
2026-04-30 20:46 65.91992 87.91913 33018 ft 467 kts 352°
2026-04-30 20:47 66.01734 87.90368 33013 ft 468 kts 353°
2026-04-30 20:48 66.11479 87.88942 33007 ft 468 kts 353°
2026-04-30 20:48 66.17992 87.87982 33004 ft 469 kts 353°
2026-04-30 20:49 66.24501 87.87014 33003 ft 469 kts 353°
2026-04-30 20:50 66.34274 87.85519 33001 ft 469 kts 353°
2026-04-30 20:50 66.40790 87.84508 32998 ft 470 kts 353°
2026-04-30 20:51 66.47316 87.83492 32996 ft 470 kts 353°
2026-04-30 20:51 66.57112 87.81959 32996 ft 470 kts 353°
2026-04-30 20:52 66.63640 87.80931 32994 ft 470 kts 353°
2026-04-30 20:53 66.73444 87.79378 32992 ft 471 kts 353°
2026-04-30 20:53 66.79991 87.78333 32987 ft 471 kts 354°
2026-04-30 20:54 66.89808 87.76756 32986 ft 472 kts 354°
2026-04-30 20:55 66.99631 87.75166 32987 ft 472 kts 354°
2026-04-30 20:55 67.06181 87.74096 32986 ft 472 kts 354°
2026-04-30 20:56 67.15962 87.72366 32984 ft 472 kts 354°
2026-04-30 20:57 67.25800 87.70583 32982 ft 473 kts 354°
2026-04-30 20:57 67.32363 87.69396 32982 ft 473 kts 354°
2026-04-30 20:58 67.42210 87.67606 32981 ft 473 kts 354°
2026-04-30 20:58 67.48789 87.66402 32981 ft 474 kts 354°
2026-04-30 20:59 67.58647 87.64585 32980 ft 474 kts 354°
2026-04-30 21:00 67.71811 87.62135 32976 ft 474 kts 354°
2026-04-30 21:01 67.78434 87.60890 32280 ft 481 kts 354°
2026-04-30 21:01 67.81767 87.60262 31604 ft 479 kts 354°
2026-04-30 21:01 67.88377 87.59011 30163 ft 479 kts 355°
2026-04-30 21:02 67.91706 87.58378 29250 ft 480 kts 355°
2026-04-30 21:02 67.95035 87.57744 28565 ft 476 kts 355°
2026-04-30 21:02 67.98317 87.57117 27961 ft 470 kts 355°
2026-04-30 21:02 68.01553 87.56497 27410 ft 464 kts 355°
2026-04-30 21:03 68.04755 87.55882 26838 ft 459 kts 355°
2026-04-30 21:03 68.07915 87.55272 26276 ft 454 kts 356°
2026-04-30 21:03 68.11057 87.54665 25719 ft 450 kts 356°
2026-04-30 21:03 68.14162 87.54062 25173 ft 446 kts 356°
2026-04-30 21:04 68.17238 87.53464 24635 ft 442 kts 356°
2026-04-30 21:04 68.20296 87.52867 24097 ft 439 kts 356°
2026-04-30 21:04 68.26327 87.51687 22930 ft 433 kts 356°
2026-04-30 21:05 68.29330 87.51097 22359 ft 428 kts 356°
2026-04-30 21:05 68.32288 87.50515 21829 ft 424 kts 356°
2026-04-30 21:05 68.35216 87.49936 21289 ft 420 kts 356°
2026-04-30 21:05 68.38113 87.49361 20759 ft 417 kts 356°
2026-04-30 21:06 68.40995 87.48787 20238 ft 413 kts 356°
2026-04-30 21:06 68.43853 87.48216 19717 ft 410 kts 356°
2026-04-30 21:06 68.46691 87.47648 19201 ft 407 kts 356°
2026-04-30 21:06 68.49506 87.47082 18704 ft 404 kts 356°
2026-04-30 21:07 68.52304 87.46518 18174 ft 402 kts 356°
2026-04-30 21:07 68.55088 87.45956 17605 ft 399 kts 356°
2026-04-30 21:07 68.57842 87.45399 17073 ft 396 kts 356°
2026-04-30 21:07 68.60581 87.44844 16569 ft 392 kts 355°
2026-04-30 21:08 68.63290 87.44293 16067 ft 389 kts 355°
2026-04-30 21:08 68.65975 87.43745 15558 ft 385 kts 355°
2026-04-30 21:08 68.68635 87.43201 15064 ft 382 kts 355°
2026-04-30 21:08 68.71282 87.42658 14567 ft 379 kts 355°
2026-04-30 21:09 68.73899 87.42120 14087 ft 376 kts 355°
2026-04-30 21:09 68.76501 87.41584 13581 ft 373 kts 355°
2026-04-30 21:09 68.79079 87.41051 13050 ft 370 kts 355°
2026-04-30 21:09 68.81627 87.40523 12581 ft 365 kts 355°
2026-04-30 21:10 68.84148 87.40001 12107 ft 361 kts 355°
2026-04-30 21:10 68.86641 87.39483 11627 ft 357 kts 355°
2026-04-30 21:10 68.89109 87.39480 11145 ft 355 kts
2026-04-30 21:10 68.91515 87.40730 10865 ft 346 kts 11°
2026-04-30 21:11 68.93793 87.42088 10718 ft 334 kts 11°
2026-04-30 21:11 68.96055 87.43423 10583 ft 323 kts 11°
2026-04-30 21:11 68.98187 87.44645 10446 ft 312 kts 10°
2026-04-30 21:11 69.00313 87.45835 10315 ft 302 kts 10°
2026-04-30 21:12 69.02343 87.46954 10188 ft 293 kts
2026-04-30 21:12 69.04284 87.48016 10062 ft 284 kts
2026-04-30 21:12 69.06198 87.49062 9950 ft 276 kts
2026-04-30 21:12 69.08073 87.50087 9659 ft 274 kts
2026-04-30 21:13 69.09933 87.51106 9392 ft 271 kts
2026-04-30 21:13 69.11754 87.52382 9125 ft 269 kts 17°
2026-04-30 21:13 69.13498 87.54229 8848 ft 267 kts 20°
2026-04-30 21:13 69.15214 87.56192 8576 ft 265 kts 20°
2026-04-30 21:14 69.16916 87.58144 8308 ft 263 kts 20°
2026-04-30 21:14 69.18607 87.60061 8037 ft 261 kts 20°
2026-04-30 21:14 69.20290 87.61948 7774 ft 259 kts 20°
2026-04-30 21:14 69.21958 87.63807 7509 ft 257 kts 19°
2026-04-30 21:15 69.23616 87.65649 7252 ft 255 kts 19°
2026-04-30 21:15 69.25265 87.67476 6994 ft 254 kts 19°
2026-04-30 21:15 69.26903 87.69288 6746 ft 252 kts 19°
2026-04-30 21:15 69.28527 87.71087 6487 ft 251 kts 19°
2026-04-30 21:16 69.30148 87.72885 6232 ft 249 kts 19°
2026-04-30 21:16 69.31757 87.74672 5967 ft 248 kts 19°
2026-04-30 21:16 69.33353 87.76446 5699 ft 246 kts 20°
2026-04-30 21:16 69.34937 87.78211 5474 ft 243 kts 20°
2026-04-30 21:17 69.36508 87.79966 5212 ft 242 kts 20°
2026-04-30 21:17 69.38073 87.81715 4966 ft 241 kts 21°
2026-04-30 21:17 69.39621 87.83409 4711 ft 238 kts 16°
2026-04-30 21:17 69.41209 87.83527 4579 ft 221 kts 342°
2026-04-30 21:18 69.42498 87.81519 4496 ft 206 kts 317°
2026-04-30 21:18 69.43397 87.78457 4427 ft 200 kts 302°
2026-04-30 21:18 69.44143 87.75110 4329 ft 200 kts 300°
2026-04-30 21:18 69.44875 87.71752 4231 ft 197 kts 300°
2026-04-30 21:19 69.45584 87.68517 4071 ft 189 kts 300°
2026-04-30 21:19 69.46130 87.65256 3864 ft 179 kts 276°
2026-04-30 21:19 69.46007 87.61866 3707 ft 172 kts 241°
2026-04-30 21:19 69.45190 87.59537 3564 ft 164 kts 216°
2026-04-30 21:20 69.44303 87.57500 3370 ft 162 kts 218°
2026-04-30 21:20 69.43430 87.55485 3173 ft 161 kts 216°
2026-04-30 21:20 69.42517 87.53651 2982 ft 161 kts 213°
2026-04-30 21:20 69.41579 87.51923 2824 ft 159 kts 212°
2026-04-30 21:21 69.40641 87.50238 2754 ft 162 kts 211°
2026-04-30 21:21 69.39708 87.48571 2581 ft 154 kts 211°
2026-04-30 21:21 69.37964 87.45459 2141 ft 149 kts 212°
2026-04-30 21:22 69.37098 87.43912 1932 ft 145 kts 212°
2026-04-30 21:22 69.34556 87.39372 1281 ft 143 kts 213°
2026-04-30 21:23 69.33716 87.37869 1062 ft 143 kts 213°
2026-04-30 21:23 69.32878 87.36372 870 ft 142 kts 213°
2026-04-30 21:23 69.31240 87.33428 617 ft 123 kts 213°
2026-04-30 21:24 69.30704 87.32469 603 ft 60 kts 212°
2026-04-30 21:24 69.30473 87.32038 623 ft 15 kts 229°
2026-04-30 21:24 69.30452 87.31970 615 ft 0 kts 213°
2026-04-30 21:24 69.30448 87.31974 616 ft 0 kts 173°
2026-04-30 21:25 69.30448 87.31994 616 ft 1 kts 89°
2026-04-30 21:25 69.30451 87.32004 611 ft 1 kts 54°
2026-04-30 21:25 69.30472 87.32056 613 ft 10 kts 36°
2026-04-30 21:26 69.30706 87.32474 603 ft 30 kts 32°
2026-04-30 21:26 69.30906 87.32833 613 ft 37 kts 32°
2026-04-30 21:27 69.31368 87.33660 607 ft 37 kts 33°
2026-04-30 21:27 69.31577 87.34033 614 ft 35 kts 33°
2026-04-30 21:27 69.31778 87.34393 616 ft 33 kts 32°
2026-04-30 21:28 69.31965 87.34526 615 ft 10 kts 306°
2026-04-30 21:28 69.31999 87.34371 609 ft 2 kts 302°
2026-04-30 21:28 69.32012 87.34314 611 ft 2 kts 302°
2026-04-30 21:29 69.32020 87.34282 605 ft 2 kts 302°
2026-04-30 21:29 69.32132 87.33976 614 ft 10 kts 45°
2026-04-30 21:30 69.32229 87.34247 613 ft 11 kts 32°
2026-04-30 21:31 69.32387 87.34417 608 ft 4 kts 310°
2026-04-30 21:31 69.32409 87.34319 617 ft 2 kts 302°
2026-04-30 21:32 69.32410 87.34316 617 ft 0 kts 302°